COSMOS 2251 DEB, 33907

Orbit data source: Space-Track

COSMOS 2251 DEB, 33907 is space debris in LEO originally from a launch on Wed, 16 Jun 1993 UTC launched from the Plesetsk Missile And Space Complex (PKMTR). The debris from Iridium 33, an American commercial communications satellite, has been tracked extensively since its accidental collision with the defunct Russian satellite Cosmos 2251 in 2009. This event, occurring at high speed in low Earth orbit (LEO), generated thousands of pieces of space debris, significantly increasing the risk of further collisions. The Iridium 33 debris cloud has impacted space traffic management and orbital debris mitigation strategies, making it a subject of ongoing study in space situational awareness.

Loading next visibility...
Identifier
33907, 1993-036DL
Orbit
LEO
Country
Flag of CISCIS
Related business
Manufacturer
Unknown
Mission
Spacecraft
Bus & Motor
Unknown
Mass
Unknown
Launch date (UTC)
1993-06-16 (33 years ago)
Launch vehicle
Unknown
Launch site
Plesetsk Missile And Space Complex (PKMTR)
Object type
Payload
Rocket body
Debris
Shape & HBR
Unknown shape, 0.1 m
Radar Cross Section
Small (<0.1 m²)

Expand to show TLE details & history
Last TLE update: 1 day ago

TLE from 1 day ago
0 COSMOS 2251 DEB
1 33907U 93036DL  26060.96460876  .00004467  00000-0  15709-2 0  9998
2 33907  74.0675 249.6136 0112767 286.7154 226.8954 14.31669229877136
Epoch: 2026-03-01T23:09Z
TLE epoch observation values (Epoch: 2026-03-01T23:09:02.196Z)
Latitude
26.23264°
Longitude
-85.45414°
Altitude
844.727 km
Speed
7.404 km/s
True Right ascension
04h 06m 16s
True Declination
26° 05' 53"
Sunlit
Object was in daylight at epoch
Visualization orbit readout
Latitude
Unknown
Longitude
Unknown
Altitude
Unknown
Speed
Unknown
Apparent Right ascension
Unknown
Apparent Declination
Unknown
Sunlit
N/A
Visualization observer readout
Local Sidereal Time
11:01:48
Azimuth
Unknown
Elevation
Unknown
Doppler factor
Unknown
Orbital elements
Apogee altitude
864.545 km
Perigee altitude
703.02 km
Semi-major axis
7,161.919 km
Eccentricity
0.01128
Inclination
74.0675°
RAAN
249.6136°
Arg. of periapsis
286.7154°
True anomaly
225.96099°
Mean anomaly
226.8954°
Eccentric anomaly
226.4273°
Mean motion
3.58096 °/min
Orbital period
100.53 mins
BSTAR
0.0015709
Loading maneuver chart data...
Computing Atmospheric mass density...

Documentation

Showing up to 5 results
|